Location: Godiavel Galaoual
(15.2485°N, 12.6604°W)
Time: 00:16:31
(UTC+00:00)

Transit 4A - Pass Details

Date: 16 June 2021
Orbit: 872 x 972 km, 66.8° (Epoch: 29 July)

Event Time Altitude Azimuth Distance (km) Brightness Sun altitude
Rises 10:40:12 0° 218° (SW) 3,607 10.7 58.1°
Reaches altitude 10° 10:42:55 10° 225° (SW) 2,648 10.1 58.7°
Maximum altitude 10:48:37 39° 293° (WNW) 1,349 9.1 60.0°
Drops below altitude 10° 10:54:12 10° 1° (N) 2,585 10.5 61.2°
Sets 10:56:50 0° 9° (N) 3,511 11.1 61.8°
